Location: Conway
(43.9790°N, 71.1210°W)
Time: 19:09:31
(UTC-04:00)

N. Korean satellite - Visible Passes

Search period start: 20 March 2019 00:00
Search period end: 30 March 2019 00:00
Orbit: 455 x 510 km, 97.2° (Epoch: 19 March)

Date Brightness Start Highest point End Pass type
(mag) Time Alt. Az. Time Alt. Az. Time Alt. Az.
20 Mar 9.5 06:14:18 10° NE 06:17:08 22° E 06:19:59 10° SSE visible
21 Mar 10.2 05:50:52 10° ENE 05:52:08 12° E 05:53:25 10° ESE visible
24 Mar 9.7 06:08:35 10° NE 06:11:15 20° E 06:13:56 10° SE visible
